Location: El Álamo
(40.2307°N, 3.9945°W)
Time: 03:20:08
(UTC+00:00)

Cosmos 1346 Rocket - Pass Details

Date: 19 May 2025
Orbit: 485 x 499 km, 81.2° (Epoch: 23 June)

Event Time Altitude Azimuth Distance (km) Brightness Sun altitude
Rises 21:09:16 0° 355° (N) 2,579 7.1 -16.2°
Reaches altitude 10° 21:11:26 10° 359° (N) 1,689 6.0 -16.5°
Maximum altitude 21:15:04 56° 79° (ENE) 586 2.7 -17.0°
Enters shadow 21:16:00 42° 131° (SE) 712 2.9 -17.1°
